Regional Weather Roundup
Issued by NWS

Home | Current Version | Previous Version | Graphics & Text | Print | Product List | Glossary On
Versions: 1 2 3 4 5 6 7 8 9 10 11 12 13 14 15 16 17 18 19 20 21 22 23 24 25 26 27 28 29 30 31 32 33 34 35 36 37 38 39 40 41 42 43 44 45 46 47 48 49 50
116
ASUS45 KBOU 181110
RWRCO

WEATHER ROUNDUP FOR COLORADO
NATIONAL WEATHER SERVICE DENVER/BOULDER CO
400 AM MST SAT NOV 18 2017

NOTE: "FAIR" INDICATES FEW OR NO CLOUDS BELOW 12000 FEET WITH NO
SIGNIFICANT WEATHER AND/OR OBSTRUCTIONS TO VISIBILITY.

COZ001>005-013-030-031-181200-
...NORTHWEST COLORADO...

CITY           SKY/WX    TMP DP  RH WIND       PRES   REMARKS
CRAIG          FAIR      13   9  84 SE3       30.31R
HAYDEN         CLOUDY    20  17  88 W7        30.31R WCI  11
MEEKER         FAIR      10   8  92 MISG      30.31R
RABBIT EARS PA CLOUDY     9   5  85 W14G24    30.09R WCI  -8
STEAMBOAT SPGS MOCLDY    19  15  85 W7        30.26R WCI   9
WALDEN         FAIR      12   5  73 W8        30.18R WCI   1
$$

COZ006>008-011-181200-
...WEST CENTRAL VALLEYS...

CITY           SKY/WX    TMP DP  RH WIND       PRES   REMARKS
GRAND JUNCTION FAIR      27  17  66 NW3       30.33R
MONTROSE       FAIR      25  19  78 SE9       30.35R WCI  15
EAGLE          FAIR      17  13  84 E9        30.30R WCI   6
RIFLE          FAIR      23  19  85 W7        30.33R WCI  15
DELTA          FAIR      30  20  67 CALM      30.33R
NUCLA          FAIR      28  12  50 NE5       30.35R WCI  23
$$

COZ017>023-064>068-181200-
...SOUTHWEST COLORADO...

CITY           SKY/WX    TMP DP  RH WIND       PRES   REMARKS
DURANGO        FAIR      31   1  28 NW16G25   30.15R WCI  20
CORTEZ         FAIR      28  14  55 NW9       30.26S WCI  19
PAGOSA SPRINGS FAIR      27  12  53 CALM      30.14S
TELLURIDE      NOT AVBL
WOLF CREEK PAS   N/A      5   1  85 NE7       30.15R WCI  -7
$$

COZ009-010-012-014-032>034-037-058>063-181200-
...CENTRAL COLORADO...

CITY           SKY/WX    TMP DP  RH WIND       PRES   REMARKS
ASPEN          CLOUDY    18  14  84 CALM      30.25R
BUENA VISTA    FAIR      22   7  54 W6        30.16R WCI  14
COPPER MTN     CLOUDY     7   1  78 MISG      30.07R
BERTHOUD PASS  HVY SNOW   0 -11  60 MISG      29.96R VSB<1/4
COTTONWOOD PAS FAIR      19  10  68 NW7       30.09R WCI  10
GUNNISON       FAIR      19   9  65 CALM      30.24R
KREMMLING      CLOUDY    27  12  54 NW7       30.25R WCI  19
LEADVILLE      CLOUDY    10   3  73 NW8       30.14R WCI  -2
MONARCH PASS     N/A      5   1  85 MISG      30.13R
SALIDA         FAIR      26  12  56 N15       30.23R WCI  13
SUNLIGHT       CLOUDY   N/A N/A N/A MISG      30.22R
WILKERSON PASS FAIR       9   3  78 N9G25     30.07R WCI  -5
$$

COZ069>075-181200-
...SAN LUIS VALLEY/SANGRE DE CRISTO MOUNTAINS...

CITY           SKY/WX    TMP DP  RH WIND       PRES   REMARKS
ALAMOSA        FAIR      25  13  60 N14       30.15R WCI  13
DEL NORTE      FAIR      25   4  40 W8        30.13S WCI  16
LA VETA PASS   FAIR      18   7  62 SW13G28     N/A  WCI   4
SAGUACHE       FAIR      25   5  42 N16G26    30.15R WCI  12
$$

COZ035-036-038>040-181200-
...NORTHERN COLORADO FRONT RANGE...

CITY           SKY/WX    TMP DP  RH WIND       PRES   REMARKS
DENVER INTL AP FAIR      30  19  63 W13       30.12R WCI  20
DMNS CITY PARK   N/A     30  19  63 NE2       30.14R
AURORA         PTCLDY    26  22  86 W9        30.13R WCI  17
FRONT RANGE AP FAIR      32  22  68 N15       30.12R WCI  21
ERIE MUNI ARPT FAIR      29  20  70 CALM      30.18S
BOULDER MUN AP FAIR      32  21  64 CALM      30.12R
CENTENNIAL     FAIR      27  22  81 N8        30.12R WCI  19
BROOMFIELD     FAIR      28  21  74 NW3       30.13R
FORT COLLINS   CLOUDY    30  19  63 NW8       30.13R WCI  22
LONGMONT       FAIR      31  22  70 SW6       30.14R WCI  25
$$

COZ041-046-047-076>085-087-088-181200-
...PIKES PEAK/PALMER DIVIDE AND SOUTHERN FOOTHILLS...

CITY           SKY/WX    TMP DP  RH WIND       PRES   REMARKS
COLO. SPRINGS  FAIR      28  20  71 N16       30.12R WCI  16
A. F. ACADEMY  FAIR      24  18  78 N10       30.10R WCI  13
SCHRIEVER AFB  FAIR      27  20  76 N13       30.11R WCI  16
CHEYENNE MTN   FAIR      25  13  60 NW10      30.04R WCI  15
ELLICOTT       NOT AVBL
FALCON         MOCLDY    25  19  77 N14G23    30.11R WCI  14
FORT CARSON    FAIR      30  14  50 N12       30.11R WCI  20
LIMON          FAIR      29  22  75 NW28G37   30.08R WCI  14
MONUMENT HILL  FAIR      21  19  93 N12       30.11R WCI   9
CANON CITY     FAIR      36  16  44 NW14      30.13R
WALSENBURG     CLOUDY    34  25  69 N17G31    30.12R WCI  23
TRINIDAD       LGT SNOW  34  29  82 NW15G28   30.10R WCI  24
$$

COZ042>045-048>051-090-091-181200-
...NORTHEAST COLORADO...

CITY           SKY/WX    TMP DP  RH WIND       PRES   REMARKS
GREELEY ARPT   FAIR      30  21  69 NW12      30.13R WCI  20
AKRON          FAIR      32  22  66 NW26G35   30.07R WCI  18
BURLINGTON     CLOUDY    37  29  72 NW26G44   30.02R
WRAY           NOT AVBL
YUMA           FAIR      34  27  75 NW25G31   30.04R WCI  21
STERLING       FAIR      34  27  75 NW22G30   30.07R WCI  22
HOLYOKE        FAIR      37  28  70 NW23G33   30.03R
FORT MORGAN    FAIR      32  19  60 NW14G22   30.11R WCI  22
$$

COZ086-089-092>099-181200-
...SOUTHEAST COLORADO...

CITY           SKY/WX    TMP DP  RH WIND       PRES   REMARKS
PUEBLO         FAIR      36  23  59 NW14      30.11R
LA JUNTA       MOCLDY    38  28  67 N23G36    30.11R
LAMAR          MOCLDY    42  26  53 N23G37    30.04R
SPRINGFIELD      N/A     37  32  82 N26G37    30.01R
$$




USA.gov is the U.S. government's official web portal to all federal, state and local government web resources and services.